Location: Central Falls
(41.8900°N, 71.3929°W)
Time: 10:05:14
(UTC+00:00)

A-11 Canister half - Pass Details

Date: 09 December 2023
Orbit: 1526 x 1682 km, 47.3° (Epoch: 29 February)

Event Time Altitude Azimuth Distance (km) Brightness Sun altitude
Rises 00:58:29 0° 267° (W) 4,930 12.5 -40.9°
Reaches altitude 10° 01:01:43 10° 270° (W) 3,944 11.8 -41.5°
Enters shadow 01:10:20 60° 312° (NW) 1,872 9.4 -43.1°
